Temp
-15 -14 -13 -13 -13 -12 -12 -12 -11 -11 -12 -11 -10 -11 -12 -11 -10 -10 -10 -9 -9 -9 -9 -9 -9 -9 -9 -9 -9 -9 -9 -9 -9 -9 -10 -10 -10 -10 -10 -10 -10 -10 -10 -11
-15 -13 -13 -13 -13 -13 -13 -12 -11 -12 -11 -11 -10 -10 -11 -11 -10 -10 -10 -10 -10 -9 -9 -9 -10 -9 -9 -9 -9 -9 -9 -9 -9 -10 -10 -10 -10 -10 -10 -10 -10 -11 -11 -11
-15 -13 -14 -14 -13 -13 -13 -12 -12 -13 -12 -11 -11 -10 -10 -11 -11 -10 -10 -10 -10 -10 -9 -9 -10 -10 -9 -9 -10 -10 -10 -10 -10 -10 -10 -10 -10 -10 -10 -11 -11 -11 -11 -11
-16 -15 -15 -14 -14 -13 -13 -13 -13 -12 -12 -11 -11 -9 -10 -10 -10 -11 -10 -11 -10 -10 -10 -10 -10 -9 -10 -10 -10 -10 -10 -10 -10 -10 -10 -10 -10 -10 -11 -11 -11 -11 -11 -11
-16 -16 -14 -14 -13 -14 -13 -13 -14 -13 -12 -12 -11 -10 -9 -10 -10 -10 -11 -11 -11 -10 -9 -10 -10 -10 -10 -10 -10 -10 -10 -10 -10 -10 -10 -10 -10 -11 -11 -11 -11 -11 -11 -11
-17 -16 -16 -14 -15 -15 -14 -14 -14 -14 -13 -12 -11 -10 -8 -10 -10 -11 -11 -11 -11 -11 -10 -10 -10 -10 -10 -10 -10 -10 -10 -11 -10 -11 -11 -11 -11 -11 -11 -11 -11 -11 -11 -11
-17 -17 -16 -15 -15 -15 -15 -14 -14 -15 -14 -11 -11 -10 -8 -9 -10 -11 -11 -11 -11 -10 -11 -10 -10 -9 -10 -10 -11 -11 -11 -11 -11 -11 -11 -11 -11 -11 -11 -11 -11 -11 -11 -11
-17 -17 -17 -16 -15 -14 -13 -14 -14 -13 -12 -11 -12 -10 -9 -10 -11 -11 -11 -11 -10 -10 -10 -9 -9 -10 -10 -10 -10 -11 -10 -11 -11 -11 -11 -11 -11 -10 -11 -11 -11 -11 -11 -11
-17 -17 -16 -16 -16 -15 -15 -15 -14 -14 -13 -12 -11 -11 -11 -10 -11 -11 -11 -10 -10 -10 -11 -10 -10 -10 -10 -10 -10 -10 -10 -10 -11 -11 -11 -11 -11 -11 -11 -11 -11 -11 -11 -12
-17 -17 -16 -17 -17 -16 -15 -14 -15 -15 -13 -12 -11 -11 -11 -11 -11 -11 -11 -11 -11 -11 -11 -10 -10 -10 -10 -10 -10 -10 -10 -10 -10 -10 -10 -10 -11 -11 -11 -11 -11 -11 -11 -12
-17 -17 -17 -17 -17 -16 -15 -14 -15 -15 -13 -13 -12 -12 -11 -12 -11 -11 -11 -11 -11 -11 -11 -11 -10 -10 -10 -10 -10 -10 -10 -10 -10 -10 -10 -11 -11 -11 -11 -11 -11 -11 -11 -12
-17 -17 -17 -17 -16 -16 -17 -15 -15 -14 -13 -13 -12 -12 -12 -12 -12 -12 -11 -11 -11 -11 -11 -11 -11 -11 -11 -11 -10 -10 -10 -10 -10 -10 -10 -11 -11 -11 -11 -11 -12 -12 -12 -12
-18 -17 -17 -17 -17 -17 -17 -16 -15 -15 -15 -13 -13 -12 -13 -12 -12 -12 -12 -11 -11 -11 -11 -11 -11 -11 -11 -10 -10 -10 -10 -10 -10 -10 -10 -11 -11 -11 -12 -12 -12 -12 -12 -12
-18 -17 -17 -16 -15 -15 -15 -15 -15 -16 -15 -13 -12 -12 -13 -13 -14 -14 -13 -12 -12 -12 -12 -11 -11 -11 -11 -11 -11 -11 -10 -10 -10 -10 -11 -11 -11 -11 -11 -12 -13 -13 -12 -12
-18 -17 -18 -18 -17 -17 -17 -16 -16 -17 -14 -15 -13 -13 -14 -14 -14 -14 -14 -13 -13 -12 -12 -12 -11 -11 -11 -11 -11 -11 -11 -11 -11 -11 -12 -13 -13 -13 -13 -13 -13 -14 -14 -14
-18 -17 -17 -18 -17 -17 -17 -17 -17 -18 -16 -16 -13 -13 -13 -15 -14 -13 -14 -14 -14 -14 -13 -12 -12 -12 -12 -12 -12 -12 -12 -12 -12 -13 -12 -12 -12 -13 -13 -13 -14 -14 -14 -14
-17 -17 -17 -18 -17 -17 -18 -16 -16 -15 -16 -15 -15 -14 -15 -15 -15 -15 -15 -15 -14 -14 -14 -13 -13 -13 -12 -12 -12 -12 -13 -13 -13 -13 -13 -13 -13 -13 -13 -13 -13 -14 -14 -14
-18 -18 -18 -18 -18 -18 -16 -17 -16 -16 -17 -17 -15 -15 -15 -15 -15 -15 -14 -14 -14 -14 -14 -14 -13 -13 -13 -12 -12 -12 -12 -13 -13 -13 -13 -14 -14 -14 -14 -14 -14 -14 -15 -16
-18 -18 -18 -18 -17 -17 -16 -16 -16 -16 -15 -16 -15 -16 -15 -16 -15 -14 -15 -15 -14 -14 -14 -14 -14 -14 -14 -14 -13 -14 -13 -13 -13 -13 -13 -13 -13 -14 -14 -14 -14 -15 -15 -16
-18 -18 -18 -18 -18 -17 -16 -16 -17 -17 -16 -15 -15 -16 -16 -16 -15 -15 -15 -14 -14 -14 -14 -14 -14 -14 -14 -14 -14 -14 -14 -14 -14 -14 -14 -14 -14 -14 -15 -15 -15 -15 -16 -16
-19 -18 -18 -18 -18 -17 -16 -16 -17 -17 -14 -16 -16 -16 -15 -15 -15 -15 -15 -15 -14 -14 -14 -14 -15 -15 -15 -15 -15 -15 -15 -15 -15 -15 -15 -15 -15 -15 -15 -16 -16 -16 -16 -17
-18 -18 -18 -18 -17 -16 -15 -16 -15 -17 -17 -17 -16 -16 -15 -15 -15 -15 -15 -15 -15 -15 -15 -15 -15 -16 -16 -16 -16 -16 -16 -16 -16 -16 -16 -16 -16 -16 -16 -16 -17 -17 -17 -18
-19 -18 -17 -17 -16 -16 -16 -17 -18 -17 -17 -16 -16 -16 -16 -16 -16 -16 -16 -16 -16 -16 -16 -17 -17 -17 -16 -16 -17 -17 -17 -17 -17 -17 -18 -18 -18 -18 -18 -18 -18 -18 -18 -18
-18 -18 -18 -17 -17 -18 -18 -18 -17 -16 -16 -16 -17 -17 -17 -17 -16 -16 -16 -17 -17 -17 -17 -17 -17 -17 -17 -17 -17 -17 -17 -17 -18 -18 -18 -18 -18 -18 -19 -19 -19 -19 -19 -19
-18 -18 -18 -18 -18 -19 -18 -18 -18 -17 -17 -17 -17 -17 -17 -17 -17 -17 -17 -17 -17 -17 -17 -17 -17 -17 -18 -18 -18 -18 -18 -18 -19 -19 -19 -19 -19 -19 -19 -19 -19 -19 -19 -19
-19 -18 -18 -19 -19 -19 -19 -18 -18 -18 -17 -17 -17 -17 -17 -17 -17 -17 -17 -17 -17 -17 -17 -18 -18 -18 -18 -18 -18 -18 -19 -19 -19 -19 -19 -20 -20 -20 -20 -20 -20 -20 -20 -20
Height
5721 5728 5740 5756 5762 5769 5775 5778 5784 5790 5795 5797 5802 5809 5813 5813 5816 5820 5823 5827 5830 5833 5836 5839 5842 5845 5849 5853 5854 5855 5857 5858 5860 5862 5863 5866 5868 5870 5873 5875 5876 5877 5876 5875
5710 5719 5739 5746 5753 5759 5765 5770 5779 5785 5787 5789 5796 5802 5807 5807 5810 5816 5818 5820 5825 5826 5828 5834 5839 5843 5845 5848 5850 5850 5853 5856 5857 5858 5859 5862 5863 5866 5868 5870 5871 5871 5871 5871
5703 5730 5730 5735 5742 5750 5758 5763 5771 5779 5780 5782 5790 5793 5801 5804 5806 5810 5813 5815 5820 5821 5825 5830 5834 5839 5841 5844 5847 5846 5846 5850 5854 5856 5857 5859 5861 5863 5864 5863 5863 5864 5867 5867
5698 5707 5714 5724 5734 5742 5750 5757 5763 5767 5772 5774 5782 5782 5794 5799 5802 5805 5809 5811 5814 5815 5819 5823 5828 5832 5837 5838 5838 5842 5843 5844 5847 5849 5852 5854 5855 5856 5857 5858 5858 5859 5859 5860
5685 5694 5703 5714 5729 5735 5744 5749 5756 5761 5764 5769 5777 5775 5790 5793 5795 5801 5804 5804 5807 5810 5812 5814 5819 5826 5830 5830 5832 5835 5838 5840 5841 5843 5846 5848 5849 5850 5850 5852 5853 5854 5853 5853
5680 5688 5691 5712 5717 5724 5735 5742 5748 5754 5757 5760 5770 5769 5775 5786 5791 5795 5797 5800 5802 5805 5807 5810 5811 5815 5820 5824 5827 5829 5832 5835 5836 5838 5839 5841 5843 5844 5844 5845 5846 5846 5846 5845
5667 5673 5684 5695 5702 5709 5722 5730 5736 5742 5745 5751 5760 5759 5762 5781 5787 5790 5791 5794 5796 5798 5800 5802 5804 5808 5813 5815 5819 5821 5824 5827 5828 5830 5831 5832 5835 5835 5836 5836 5836 5836 5838 5836
5658 5663 5668 5681 5692 5705 5717 5721 5726 5734 5739 5746 5748 5752 5755 5774 5780 5783 5784 5786 5789 5792 5794 5796 5797 5800 5805 5809 5812 5813 5815 5819 5821 5822 5825 5824 5824 5826 5827 5828 5828 5829 5829 5829
5652 5659 5667 5675 5687 5696 5701 5705 5725 5728 5734 5737 5741 5751 5753 5766 5773 5775 5777 5781 5783 5785 5788 5791 5793 5795 5798 5802 5805 5806 5808 5809 5811 5814 5815 5816 5817 5818 5819 5819 5818 5819 5820 5820
5649 5655 5660 5669 5674 5678 5687 5707 5709 5715 5724 5729 5735 5742 5745 5752 5764 5769 5771 5773 5777 5779 5782 5785 5787 5790 5792 5795 5797 5798 5800 5802 5803 5802 5803 5805 5808 5808 5809 5808 5808 5809 5810 5811
5639 5647 5653 5656 5659 5671 5683 5689 5699 5711 5717 5723 5728 5733 5739 5741 5756 5763 5765 5767 5769 5772 5774 5778 5780 5781 5783 5785 5787 5789 5791 5792 5793 5794 5793 5795 5795 5796 5797 5797 5799 5798 5798 5799
5631 5636 5642 5650 5659 5668 5675 5685 5693 5699 5709 5714 5718 5727 5732 5738 5745 5755 5758 5760 5761 5764 5767 5768 5770 5771 5773 5775 5777 5779 5781 5782 5783 5783 5783 5784 5785 5785 5786 5786 5787 5786 5785 5785
5619 5622 5633 5641 5648 5654 5661 5673 5684 5691 5696 5705 5713 5725 5728 5731 5734 5742 5748 5751 5753 5755 5755 5756 5760 5762 5764 5766 5768 5769 5770 5771 5771 5772 5772 5773 5773 5772 5773 5773 5772 5771 5771 5771
5614 5619 5627 5637 5651 5654 5659 5668 5676 5682 5687 5702 5705 5717 5723 5723 5726 5728 5734 5741 5744 5745 5746 5748 5751 5752 5753 5755 5757 5760 5761 5761 5760 5759 5759 5760 5761 5761 5760 5758 5757 5757 5755 5754
5605 5612 5622 5629 5637 5644 5652 5660 5666 5670 5688 5683 5706 5706 5711 5711 5713 5717 5720 5726 5731 5733 5737 5739 5741 5742 5744 5745 5746 5746 5747 5748 5749 5747 5747 5748 5748 5749 5748 5746 5745 5743 5741 5739
5598 5606 5615 5621 5627 5633 5639 5646 5652 5660 5672 5677 5692 5693 5698 5700 5703 5707 5711 5713 5719 5723 5725 5727 5729 5731 5734 5736 5736 5736 5736 5736 5737 5737 5737 5735 5735 5733 5732 5731 5730 5728 5727 5725
5590 5598 5604 5612 5618 5623 5625 5636 5648 5659 5663 5675 5677 5694 5692 5691 5693 5697 5696 5705 5708 5711 5713 5716 5718 5720 5721 5723 5724 5725 5725 5725 5724 5724 5724 5723 5723 5722 5720 5718 5716 5715 5713 5711
5585 5592 5599 5603 5609 5611 5625 5633 5644 5650 5656 5662 5670 5676 5678 5681 5685 5683 5691 5694 5697 5700 5702 5704 5706 5707 5709 5712 5712 5712 5712 5712 5711 5710 5709 5709 5708 5708 5706 5705 5703 5700 5699 5698
5575 5582 5589 5593 5603 5610 5616 5628 5635 5639 5650 5654 5662 5666 5670 5672 5671 5677 5680 5682 5685 5688 5690 5691 5692 5694 5696 5698 5698 5699 5698 5698 5697 5695 5694 5694 5693 5692 5690 5688 5687 5686 5684 5683
5567 5574 5583 5588 5595 5603 5614 5619 5625 5628 5634 5646 5651 5655 5660 5661 5665 5670 5668 5672 5673 5676 5677 5679 5680 5681 5682 5683 5683 5684 5683 5683 5683 5682 5680 5679 5677 5675 5674 5673 5672 5671 5669 5668
5558 5566 5573 5582 5590 5599 5605 5609 5615 5621 5640 5637 5643 5646 5650 5654 5657 5657 5658 5661 5663 5664 5664 5665 5666 5667 5668 5668 5668 5668 5668 5667 5666 5665 5663 5662 5661 5660 5658 5657 5655 5655 5653 5653
5552 5560 5569 5577 5584 5590 5594 5598 5608 5619 5622 5628 5633 5637 5640 5644 5646 5647 5650 5651 5651 5651 5651 5651 5652 5652 5652 5653 5653 5653 5652 5651 5650 5649 5648 5647 5646 5644 5642 5642 5639 5638 5637 5635
5548 5556 5563 5570 5577 5582 5586 5594 5602 5608 5614 5619 5624 5628 5632 5635 5636 5637 5638 5639 5640 5640 5641 5640 5640 5640 5640 5640 5640 5639 5639 5638 5637 5635 5634 5632 5631 5630 5629 5627 5625 5623 5621 5619
5539 5547 5555 5566 5573 5581 5580 5587 5595 5601 5605 5610 5614 5618 5621 5623 5625 5628 5628 5629 5629 5630 5630 5630 5630 5629 5629 5628 5627 5626 5625 5625 5624 5623 5622 5620 5619 5616 5616 5613 5611 5610 5608 5605
5535 5543 5549 5559 5568 5571 5575 5581 5587 5592 5598 5602 5605 5608 5611 5614 5617 5618 5618 5619 5618 5618 5618 5619 5620 5619 5619 5618 5617 5615 5614 5614 5613 5612 5610 5609 5607 5605 5603 5601 5599 5597 5595 5592
5530 5538 5546 5554 5561 5565 5569 5575 5580 5585 5588 5591 5595 5599 5602 5604 5606 5608 5610 5611 5611 5611 5611 5611 5611 5610 5609 5607 5606 5605 5604 5603 5601 5600 5598 5597 5595 5593 5590 5588 5587 5584 5580 5578
Wind_Speed
63 69 66 63 61 58 56 54 51 46 40 41 42 35 36 35 38 40 32 36 33 31 33 30 27 23 23 22 22 22 24 24 22 20 20 20 21 22 23 23 25 25 25 25
70 74 65 61 62 61 58 56 53 47 47 46 41 36 36 35 34 36 36 33 33 37 37 33 28 25 21 22 22 21 23 24 24 24 24 24 24 23 24 24 27 29 29 30
67 73 66 64 63 62 59 59 55 48 50 48 41 41 36 37 30 33 34 33 32 35 38 36 29 27 24 22 24 24 23 23 23 24 26 25 25 24 25 28 32 32 31 32
61 67 71 66 65 63 61 58 53 52 52 53 47 49 38 35 35 33 26 31 29 29 33 39 33 30 27 24 27 26 25 23 22 23 25 26 26 26 28 31 32 34 34 34
61 69 71 69 63 63 61 57 54 51 52 53 46 53 43 36 36 33 23 25 29 33 30 38 36 32 32 32 28 28 28 27 24 24 24 26 27 27 30 31 32 34 37 38
58 65 71 64 62 62 61 58 55 52 53 53 47 51 50 40 38 32 30 30 29 28 29 33 36 36 37 34 33 31 30 30 28 28 27 26 29 30 31 33 35 36 39 41
63 69 69 67 66 64 62 61 58 56 56 59 54 55 56 40 35 30 33 34 31 27 27 28 35 37 37 38 37 36 35 34 34 34 33 31 31 34 35 37 38 41 41 43
54 59 74 69 67 63 59 61 63 59 58 56 55 57 58 40 34 32 29 30 37 35 27 27 27 30 36 38 39 39 38 38 38 39 37 38 39 38 39 40 42 43 43 45
65 71 59 65 66 64 63 62 56 57 58 58 57 52 53 41 35 33 34 32 30 30 31 27 24 23 21 24 29 33 41 43 44 42 43 43 42 41 41 43 46 46 46 47
64 61 70 67 59 68 64 58 59 61 60 59 57 54 54 48 38 35 34 31 30 31 33 33 30 28 29 27 29 30 28 29 34 43 47 47 46 47 46 47 47 49 48 49
59 67 63 66 71 62 65 64 62 59 59 58 58 56 53 50 40 37 34 33 32 32 33 32 31 32 31 30 29 29 30 31 36 41 45 51 51 50 51 52 51 51 52 53
57 61 67 70 68 62 63 60 62 62 59 60 60 57 53 49 40 31 32 36 34 35 35 36 36 36 36 37 36 35 36 35 35 37 44 48 52 53 55 55 54 56 58 57
62 60 55 51 56 70 69 67 62 59 59 59 58 55 51 48 45 39 38 38 37 37 38 40 41 41 42 42 41 40 38 38 37 37 37 42 42 46 56 59 60 62 63 62
55 64 58 64 59 63 62 63 64 60 62 58 60 54 46 48 47 45 44 42 41 44 45 45 45 46 46 46 45 42 39 40 38 38 39 41 44 45 47 54 61 64 64 65
62 59 58 62 58 56 56 62 61 60 55 57 51 52 49 50 50 49 49 46 44 47 48 47 48 50 51 49 49 50 49 48 48 45 45 48 51 52 52 54 57 62 66 68
62 64 62 55 66 61 57 60 58 50 58 59 54 59 61 55 57 58 54 48 44 41 46 49 51 51 51 54 56 55 55 54 52 52 53 53 55 55 57 59 61 64 65 65
56 54 50 65 59 59 60 65 61 54 54 54 60 48 53 55 54 52 53 49 48 46 47 48 48 49 50 51 55 57 58 57 56 55 56 58 59 60 61 61 62 62 63 65
57 55 54 51 54 57 58 55 57 58 53 48 48 45 45 47 48 52 51 49 48 47 46 48 49 50 52 53 54 55 55 55 59 58 58 61 62 61 60 60 62 62 62 62
58 58 57 59 56 53 55 49 45 48 46 48 48 43 42 39 44 46 44 47 49 50 51 51 51 50 51 53 55 55 57 59 60 59 58 59 60 59 59 60 62 63 63 64
48 55 54 53 49 44 42 43 44 43 47 40 38 34 35 39 43 39 46 49 51 52 52 53 53 51 52 53 54 55 56 57 57 59 59 57 57 57 57 58 60 61 62 65
43 45 52 51 50 44 40 42 42 38 31 32 33 34 36 38 39 43 44 45 48 49 50 49 48 47 47 47 48 48 49 51 51 52 53 54 55 56 58 59 60 61 63 65
38 42 48 46 43 39 39 38 34 27 29 29 29 32 34 36 38 39 39 40 42 45 47 48 47 46 46 46 46 45 45 46 47 48 49 51 54 56 58 59 62 64 68 70
43 39 40 44 41 41 38 33 28 29 27 28 31 32 31 30 30 32 35 38 41 42 42 42 43 43 43 44 43 41 41 39 39 41 45 48 52 55 57 58 60 62 63 62
43 42 41 41 37 32 25 26 25 28 31 32 31 29 26 25 24 28 33 36 39 40 42 43 44 44 44 43 41 39 39 39 40 41 43 46 50 52 52 51 50 50 49 49
39 41 39 38 35 36 27 28 30 32 31 31 30 30 29 30 31 29 29 29 30 32 34 36 36 37 38 38 38 38 38 37 38 39 40 41 42 45 46 46 46 46 46 46
38 38 37 34 32 33 31 33 33 35 36 33 33 36 35 34 33 32 31 32 32 33 34 36 37 37 37 37 37 36 36 37 39 40 42 44 43 42 42 43 43 43 44 46
Wind_Direction
230 229 232 234 233 233 234 235 236 236 242 241 243 242 250 245 234 236 243 241 238 239 240 237 239 240 244 247 244 247 251 243 237 231 230 237 241 242 249 252 244 245 251 256
224 230 232 232 233 234 235 235 235 239 240 240 240 243 244 245 242 242 246 244 247 244 243 241 240 244 249 248 249 247 249 253 247 242 238 239 239 243 248 249 243 245 251 259
228 232 231 229 231 232 234 235 235 237 240 244 242 243 242 250 254 259 246 246 247 248 247 247 244 248 245 255 257 252 246 250 255 258 258 256 255 253 248 244 242 247 254 263
226 225 226 227 231 232 233 234 235 236 238 240 239 244 243 243 253 253 258 246 252 257 247 248 246 247 251 246 251 257 255 253 254 257 261 261 258 255 254 252 251 251 254 259
226 220 225 227 231 232 232 235 236 238 240 242 240 247 235 241 243 243 250 245 247 250 245 244 245 246 247 248 247 251 258 260 259 259 259 261 262 258 259 259 260 260 262 263
228 224 222 224 226 230 231 232 236 236 239 241 237 243 238 236 243 240 247 253 261 262 260 251 245 240 243 248 251 251 253 260 263 263 260 259 262 263 262 266 267 266 267 266
223 227 222 219 221 224 224 228 230 231 233 238 236 241 243 232 239 242 246 249 259 269 268 262 255 248 241 245 247 251 252 252 253 256 257 258 258 261 264 266 267 270 270 271
213 221 224 219 221 228 226 229 232 233 234 236 239 239 244 240 243 239 245 250 251 258 260 259 259 254 253 247 252 251 255 257 259 258 260 260 261 262 264 267 271 272 273 273
223 219 222 223 221 222 223 225 231 235 236 237 240 242 249 246 241 246 248 253 254 258 264 263 271 273 267 261 259 263 260 257 259 262 260 261 263 265 268 269 271 272 272 273
219 225 227 225 221 221 221 224 225 229 233 235 238 240 245 246 240 242 245 249 253 257 257 262 269 272 270 269 271 274 274 272 267 263 262 263 262 263 266 267 270 273 273 272
227 226 224 228 225 222 219 219 222 228 232 236 238 241 242 249 242 242 244 245 247 252 258 259 261 266 266 266 265 269 270 270 271 266 264 260 261 262 263 266 269 270 271 272
225 224 230 230 229 227 229 227 226 227 230 233 236 239 245 249 254 237 238 241 244 244 248 254 256 257 260 262 264 264 267 270 269 269 266 266 263 265 266 266 269 272 272 272
218 210 215 218 229 230 234 225 222 224 229 230 238 241 248 250 251 245 237 232 239 245 247 249 252 256 261 264 266 268 266 267 269 271 270 265 267 271 268 267 270 270 271 271
222 228 233 234 237 234 230 225 223 228 229 229 234 240 240 248 250 254 247 239 239 240 243 246 253 257 258 260 263 264 267 269 268 269 267 261 262 265 264 265 268 270 270 271
224 230 232 231 232 234 240 239 237 237 226 235 225 235 241 245 249 251 254 251 244 242 241 245 249 253 257 259 262 265 266 266 269 262 259 260 262 264 266 267 269 270 270 271
220 227 237 236 232 235 238 235 236 237 230 230 224 229 234 243 248 250 252 255 257 255 248 248 249 251 253 255 257 261 266 269 270 271 266 262 262 263 264 266 266 269 271 272
220 221 231 226 231 236 241 238 236 236 237 234 235 235 247 251 249 255 258 262 263 267 268 262 258 258 258 258 257 258 262 265 267 269 269 268 268 268 269 267 267 268 270 273
232 234 231 228 232 239 242 240 241 244 246 246 238 241 246 248 250 254 259 263 264 265 265 266 265 265 264 261 262 263 264 264 264 266 268 267 267 268 269 270 269 269 273 276
231 232 236 234 235 244 241 243 247 250 251 250 247 250 247 251 252 253 263 264 265 268 270 272 273 273 270 267 266 268 268 268 269 271 272 273 274 275 275 274 276 275 275 277
226 231 232 234 229 234 239 242 242 243 241 239 239 241 245 250 258 262 265 267 269 270 272 274 277 278 279 278 277 275 274 274 275 275 275 276 278 277 277 278 279 279 281 282
226 225 223 229 236 241 230 232 230 235 233 228 233 241 247 252 255 260 266 271 275 278 280 281 279 278 279 278 278 277 277 277 276 276 276 276 274 274 275 276 276 277 278 279
224 229 229 229 233 225 223 217 219 223 226 232 237 244 249 253 256 261 266 270 272 273 273 273 275 277 279 279 280 279 278 279 279 279 278 277 275 274 272 273 272 271 273 275
226 227 229 228 222 222 213 216 214 218 224 230 237 240 245 251 256 263 267 270 272 272 273 276 280 281 282 283 283 284 282 279 277 277 279 279 278 278 278 278 278 279 281 283
224 214 210 216 218 209 196 205 219 222 228 231 235 239 239 252 260 269 270 270 270 270 270 272 276 279 281 283 284 285 286 285 282 281 279 280 281 281 280 280 282 283 282 285
207 209 210 212 208 207 206 208 219 227 233 235 234 235 244 252 261 275 279 277 276 275 275 277 279 281 282 284 285 285 284 283 283 283 283 282 284 286 287 286 287 288 288 289
201 205 207 206 206 210 216 221 227 232 235 235 236 242 251 259 263 272 280 280 279 279 280 280 282 282 283 287 288 287 287 288 289 290 291 291 290 288 289 290 291 292 293 292